Weather History for Fort Polk, LA

Change the Weather History Date:

Sunday, November 17, 2013

  Actual Average (KPOE) Record (KPOE)
Temperature  
Mean Temperature 76 °F -  
Max Temperature 82 °F 65 °F 81 °F (2013)
Min Temperature 71 °F 46 °F 30 °F (1997)
Cooling Degree Days 12    
Growing Degree Days 26 (Base 50)    
Moisture  
Dew Point 72 °F    
Average Humidity 93    
Maximum Humidity 100    
Minimum Humidity 69    
Precipitation  
Precipitation 0.64 in - - ()
Sea Level Pressure  
Sea Level Pressure 29.86 in    
Wind  
Wind Speed 5 mph (SSW)    
Max Wind Speed 10 mph    
Max Gust Speed 18 mph    
Visibility 6 miles    
Events Rain , Thunderstorm    
Averages and records for this station are not official NWS values.
T = Trace of Precipitation, MM = Missing Value Source: NWS Daily Summary

Daily Weather History Graph

Daily Weather History Graph

Search for Another Location

Airport:

Trip Planner

Search our weather history database for the weather conditions in past years. The results will help you decide how hot, cold, wet, or windy it might be!

Date:

Astronomy

Nov. 17, 2013 Rise Set
Actual Time 6:42 AM CST 5:13 PM CST
Civil Twilight 6:16 AM CST 5:39 PM CST
Nautical Twilight 5:47 AM CST 6:08 PM CST
Astronomical Twilight 5:18 AM CST 6:37 PM CST
Moon 5:30 PM CST (11/17) 6:38 AM CST (11/17)
Length of Visible Light 11h 22m
Length of Day
10h 30m
Full, 100% of the Moon is Illuminated
Nov 17
Full
Nov 25
Last Quarter
Dec 2
New
Dec 9
First Quarter
Dec 17
Full

Hourly Weather History & Observations

Time (CST) Temp. Heat Index Dew Point Humidity Pressure Visibility Wind Dir Wind Speed Gust Speed Precip Events Conditions
12:56 AM 72.0 °F - 69.1 °F 91% 29.85 in 10.0 mi South 5.8 mph - 0.00 in Rain Light Rain
1:56 AM 72.0 °F - 70.0 °F 93% 29.83 in 10.0 mi South 10.4 mph 18.4 mph 0.01 in Rain Light Rain
2:14 AM 71.6 °F - 69.8 °F 94% 29.83 in 10.0 mi Variable 6.9 mph - 0.00 in   Overcast
2:56 AM 71.1 °F - 70.0 °F 96% 29.82 in 6.0 mi Variable 5.8 mph - 0.01 in Rain Light Rain
3:10 AM 71.6 °F - 69.8 °F 94% 29.83 in 2.5 mi Variable 3.5 mph - 0.07 in Rain , Thunderstorm Heavy Thunderstorms and Rain
3:27 AM 71.6 °F - 69.8 °F 94% 29.82 in 3.0 mi Variable 3.5 mph - 0.15 in Rain , Thunderstorm Light Thunderstorms and Rain
3:30 AM 71.6 °F - 69.8 °F 94% 29.82 in 1.8 mi Variable 6.9 mph - 0.22 in Rain , Thunderstorm Heavy Thunderstorms and Rain
3:37 AM 71.6 °F - 69.8 °F 94% 29.82 in 1.0 mi Calm Calm - 0.30 in Rain Heavy Rain
3:56 AM 71.1 °F - 70.0 °F 96% 29.82 in 2.0 mi South 9.2 mph - 0.45 in Rain Heavy Rain
4:24 AM 71.6 °F - 71.6 °F 100% 29.82 in 10.0 mi South 10.4 mph - 0.11 in   Overcast
4:56 AM 72.0 °F - 71.1 °F 97% 29.83 in 3.0 mi Variable 3.5 mph - 0.14 in Rain Rain
5:56 AM 72.0 °F - 71.1 °F 97% 29.83 in 9.0 mi South 4.6 mph - 0.02 in   Overcast
6:56 AM 73.0 °F - 72.0 °F 96% 29.84 in 8.0 mi South 5.8 mph - 0.01 in Rain Light Rain
7:56 AM 73.0 °F - 72.0 °F 96% 29.86 in 8.0 mi SSW 6.9 mph - 0.00 in   Overcast
8:56 AM 73.9 °F - 72.0 °F 93% 29.87 in 8.0 mi Variable 6.9 mph - 0.00 in Rain Light Rain
9:56 AM 75.9 °F - 73.0 °F 91% 29.88 in 10.0 mi Variable 5.8 mph - 0.00 in   Overcast
10:23 AM 75.2 °F - 73.4 °F 94% 29.88 in 10.0 mi Variable 5.8 mph - N/A   Overcast
10:36 AM 75.2 °F - 73.4 °F 94% 29.88 in 10.0 mi SSW 8.1 mph - N/A   Overcast
10:52 AM 77.0 °F - 73.4 °F 89% 29.87 in 10.0 mi SW 10.4 mph - N/A   Overcast
10:56 AM 77.0 °F - 73.0 °F 88% 29.87 in 10.0 mi Variable 4.6 mph - N/A   Overcast
11:56 AM 79.0 °F - 73.0 °F 82% 29.84 in 10.0 mi SSW 8.1 mph - N/A   Overcast
12:05 PM 78.8 °F - 73.4 °F 83% 29.84 in 10.0 mi Variable 6.9 mph - N/A   Overcast
1:56 PM 82.0 °F 86.3 °F 71.1 °F 69% 29.81 in 10.0 mi Variable 6.9 mph 16.1 mph N/A   Mostly Cloudy
2:56 PM 81.0 °F 85.8 °F 73.0 °F 77% 29.82 in 10.0 mi Calm Calm - 0.00 in   Overcast
3:56 PM 81.0 °F 85.8 °F 73.0 °F 77% 29.83 in 10.0 mi Variable 3.5 mph - N/A   Partly Cloudy
4:56 PM 77.0 °F - 73.9 °F 90% 29.83 in 8.0 mi Calm Calm - N/A   Mostly Cloudy
5:56 PM 75.0 °F - 73.0 °F 94% 29.86 in 6.0 mi Calm Calm - N/A   Mostly Cloudy
6:32 PM 73.4 °F - 73.4 °F 100% 29.88 in 2.0 mi Calm Calm - N/A   Scattered Clouds
6:43 PM 73.4 °F - 71.6 °F 94% 29.88 in 1.5 mi Calm Calm - N/A   Partly Cloudy
6:56 PM 73.0 °F - 72.0 °F 96% 29.88 in 2.5 mi Calm Calm - N/A   Partly Cloudy
7:29 PM 73.4 °F - 71.6 °F 94% 29.89 in 5.0 mi Calm Calm - N/A   Partly Cloudy
7:56 PM 73.9 °F - 72.0 °F 93% 29.89 in 5.0 mi Calm Calm - N/A   Clear
8:56 PM 73.0 °F - 72.0 °F 96% 29.91 in 4.0 mi Calm Calm - N/A   Mostly Cloudy
9:11 PM 73.4 °F - 71.6 °F 94% 29.91 in 1.8 mi Calm Calm - N/A   Overcast
9:22 PM 71.6 °F - 71.6 °F 100% 29.92 in 2.0 mi South 3.5 mph - N/A   Overcast
9:31 PM 73.4 °F - 71.6 °F 94% 29.92 in 4.0 mi Variable 3.5 mph - N/A   Overcast
9:51 PM 73.4 °F - 73.4 °F 100% 29.93 in 6.0 mi Calm Calm - N/A   Overcast
9:56 PM 73.9 °F - 73.0 °F 97% 29.92 in 6.0 mi SW 4.6 mph - N/A   Overcast
10:56 PM 75.0 °F - 73.0 °F 94% 29.94 in 5.0 mi Variable 3.5 mph - N/A   Overcast
11:16 PM 73.4 °F - 73.4 °F 100% 29.95 in 5.0 mi Calm Calm - N/A   Overcast